[[{"header":{"parameterUnit":"m.s-1","parameterCategory":1,"la1":30.2991,"la2":30.254,"lo1":-89.0895,"lo2":-89.0444,"dy":0.0017,"dx":0.0017,"nx":28,"ny":28,"refTime":"2023-10-01T09:00:00:Z","depth":0,"parameterNumber":2,"parameterNumberName":"U-component_of_WINDS"},"data":[0,0,0,0,0,0,0,0,0,0,0,0,0,0,0,0,0,0,0,0,0,0,0,0,0,0,0,0,0,0,0,0,0,0,0,0,0,0,0,0,0,0,0,0,0,0,0,0,0,0,0,0,0,0,0,0,0,0,-4.4192,-4.4192,0,-4.4146,-4.4145,-4.4145,-4.3996,-4.3993,-4.399,-4.3987,-4.3943,-4.3945,-4.3946,0,0,0,0,0,0,0,0,0,0,0,0,0,-4.4157,-4.4159,-4.4192,-4.4192,-4.4191,-4.4146,-4.4145,-4.4145,-4.3997,-4.3993,-4.3989,-4.3985,-4.3942,-4.3944,-4.3947,0,0,0,0,0,0,0,0,0,0,0,0,0,-4.4148,-4.4159,-4.4192,-4.4112,-4.4104,-4.4146,-4.4145,-4.4144,-4.3998,-4.3993,-4.3988,-4.3983,-4.3941,-4.3944,-4.3947,-4.4064,0,0,-4.3956,-4.3957,0,0,0,0,0,0,0,0,-4.4149,-4.415,-4.4124,-4.4117,-4.4109,-4.4072,-4.4117,-4.4118,-4.3999,-4.4038,-4.3986,-4.3981,-4.399,-4.3988,-4.3991,-4.4062,-4.406,-4.3956,-4.3958,-4.3959,-4.396,0,0,0,0,0,0,0,-4.415,-4.4151,-4.4174,-4.4124,-4.4115,-4.4079,-4.4073,-4.4116,-4.4043,-4.4034,-4.4024,-4.402,-4.3985,-4.3988,-4.3989,-4.406,-4.3956,-4.3958,-4.396,-4.3961,-4.4228,-4.4233,0,0,0,0,0,0,-4.4161,-4.4152,-4.4175,-4.4172,-4.4117,-4.4084,-4.4076,-4.4089,-4.4042,-4.403,-4.4024,-4.4013,-4.3986,-4.3985,-4.3987,-4.4123,-4.3959,-4.3962,-4.3963,-4.4223,-4.4229,-4.4235,0,0,0,0,0,0,-4.4161,-4.4165,-4.4177,-4.4159,-4.4158,-4.409,-4.4105,-4.409,-4.4094,-4.4034,-4.402,-4.4041,-4.3982,-4.3982,-4.4046,-4.4119,-4.3963,-4.3966,-4.4216,-4.4225,-4.4232,-4.4395,0,0,0,0,0,0,-4.4161,-4.4165,-4.4208,-4.4161,-4.416,-4.4237,-4.4109,-4.4093,-4.4099,-4.4084,-4.4046,-4.4035,-4.3978,-4.4043,-4.4049,-4.412,-4.3968,-4.4209,-4.422,-4.4229,-4.4383,-4.4408,-4.4429,0,0,0,0,0,-4.416,-4.4256,-4.4211,-4.4215,-4.4211,-4.4241,-4.4241,-4.4172,-4.4105,-4.4148,-4.411,-4.4036,-4.411,-4.4051,-4.4057,-4.413,-4.4205,-4.4217,-4.4229,-4.4373,-4.4403,-4.4429,0,0,0,0,0,0,-4.4314,-4.4248,-4.4198,-4.4281,-4.4268,-4.4216,-4.4268,-4.4206,-4.4212,-4.4198,-4.4113,-4.4106,-4.4183,-4.4162,-4.4097,-4.4242,-4.4145,-4.4159,-4.4253,-4.4281,-4.4304,-4.4308,-4.397,0,0,0,0,0,-4.4357,-4.4386,-4.4327,-4.4407,-4.4403,-4.4338,-4.4348,-4.4296,-4.4279,-4.4273,-4.4239,-4.4227,-4.4248,-4.4263,-4.4278,-4.4379,-4.437,-4.4433,-4.4456,-4.4475,-4.4488,-4.4543,-4.4571,-4.4274,-4.4274,-4.4274,0,0,-4.4448,-4.4416,-4.4439,-4.4437,-4.4421,-4.4454,-4.4334,-4.4373,-4.4398,-4.4279,-4.4338,-4.4314,-4.4294,-4.4378,-4.4413,-4.4363,-4.4568,-4.449,-4.4506,-4.4509,-4.4559,-4.4587,-4.4612,-4.4283,-4.4281,-4.428,0,0,-4.463,-4.4608,-4.4673,-4.4659,-4.4635,-4.4591,-4.4608,-4.4566,-4.4545,-4.4602,-4.4515,-4.4543,-4.4579,-4.457,-4.457,-4.4752,-4.4685,-4.4759,-4.488,-4.4934,-4.4958,-4.4978,-4.5046,-4.5071,-4.4772,-4.4773,-4.4773,0,-4.4746,-4.4791,-4.4714,-4.476,-4.4764,-4.4657,-4.4724,-4.4715,-4.4698,-4.4704,-4.4647,-4.4692,-4.4672,-4.4753,-4.4798,-4.4801,-4.4818,-4.4763,-4.496,-4.498,-4.4998,-4.5061,-4.5087,-4.4782,-4.4781,-4.478,-4.4779,0,-4.4936,-4.4969,-4.5025,-4.5012,-4.5021,-4.5077,-4.501,-4.5029,-4.4977,-4.494,-4.5002,-4.4973,-4.4982,-4.4997,-4.4947,-4.5073,-4.5043,-4.4975,-4.4876,-4.5037,-4.5095,-4.5119,-4.4795,-4.4792,-4.4789,-4.4787,0,0,-4.5214,-4.5158,-4.518,-4.5174,-4.5141,-4.5166,-4.5219,-4.5227,-4.5246,-4.5239,-4.5282,-4.5316,-4.5254,-4.5254,-4.5202,-4.525,-4.5399,-4.5175,-4.5174,-4.522,-4.5539,-4.5593,-4.5622,-4.5354,-4.5358,-4.5361,-4.5542,0,-4.5389,-4.5474,-4.5408,-4.5506,-4.5538,-4.5438,-4.5484,-4.547,-4.5438,-4.5461,-4.5424,-4.5451,-4.5365,-4.5365,-4.5407,-4.5372,-4.5462,-4.5357,-4.5396,-4.5398,-4.5406,-4.5652,-4.5707,-4.5879,-4.5564,-4.5568,-4.557,0,-4.5604,-4.5607,-4.5709,-4.5671,-4.5682,-4.5725,-4.5728,-4.575,-4.5734,-4.5706,-4.5708,-4.5644,-4.5695,-4.5597,-4.5668,-4.5599,-4.561,-4.5596,-4.5601,-4.5603,-4.5496,-4.5664,-4.5932,-4.5959,-4.5605,-4.5602,-4.56,0,-4.58,-4.5829,-4.5894,-4.5891,-4.5849,-4.5882,-4.5866,-4.5844,-4.5854,-4.5857,-4.5864,-4.5873,-4.5879,-4.5889,-4.5831,-4.5764,-4.591,-4.5807,-4.5892,-4.5894,-4.5928,-4.5927,-4.6205,-4.5933,-4.5932,-4.5932,-4.5931,0,-4.6004,-4.6071,-4.5982,-4.6022,-4.6095,-4.6018,-4.6093,-4.6067,-4.6049,-4.6084,-4.5998,-4.6033,-4.5952,-4.598,-4.5934,-4.6001,-4.6004,-4.5985,-4.5973,-4.5994,-4.5997,-4.6003,-4.599,-4.5939,-4.5937,-4.5936,-4.5935,0,-4.6235,-4.6178,-4.6243,-4.6198,-4.6188,-4.6244,-4.6206,-4.6243,-4.6205,-4.6251,-4.6257,-4.6198,-4.6226,-4.6167,-4.6187,-4.6157,-4.6253,-4.622,-4.6259,-4.625,-4.6339,-4.6333,-4.6632,-4.6669,-4.6371,-4.6374,-4.6377,0,-4.637,-4.6419,-4.638,-4.6397,-4.6386,-4.6414,-4.6424,-4.6351,-4.6365,-4.6352,-4.6391,-4.6412,-4.6424,-4.6474,-4.6434,-4.645,-4.6419,-4.6522,-4.6421,-4.6442,-4.6424,-4.6422,-4.6428,-4.6544,-4.6548,-4.6551,-4.6553,0,-4.6616,-4.6586,-4.6603,-4.6611,-4.6626,-4.6629,-4.6626,-4.6645,-4.6568,-4.6589,-4.6616,-4.6626,-4.6647,-4.667,-4.6677,-4.6662,-4.6597,-4.6585,-4.6606,-4.663,-4.6651,-4.6644,-4.6319,-4.6579,-4.6577,-4.6575,-4.6573,-4.6572,-4.6804,-4.6845,-4.6824,-4.6847,-4.6837,-4.6837,-4.687,-4.6836,-4.6857,-4.6868,-4.6824,-4.6863,-4.6847,-4.6849,-4.6842,-4.6872,-4.6825,-4.6855,-4.6863,-4.6872,-4.6888,-4.6645,-4.6872,-4.6872,-4.6871,-4.687,-4.6869,0,-4.7048,-4.703,-4.7052,-4.7051,-4.707,-4.7005,-4.6999,-4.702,-4.7054,-4.7044,-4.7059,-4.7092,-4.7115,-4.7077,-4.7093,-4.7125,-4.7096,-4.7132,-4.713,-4.7129,-4.6927,-4.6908,-4.7156,-4.7156,-4.7156,-4.7156,-4.7156,-4.7156,-4.7177,-4.7243,-4.7211,-4.7272,-4.7253,-4.7289,-4.7292,-4.7293,-4.7285,-4.7326,-4.7344,-4.7318,-4.7298,-4.7313,-4.7332,-4.732,-4.7331,-4.7379,-4.7358,-4.717,-4.7142,-4.7116,-4.7098,-4.7382,-4.7382,-4.7557,-4.7559,-4.756]},{"header":{"parameterUnit":"m.s-1","parameterCategory":1,"la1":30.2991,"la2":30.254,"lo1":-89.0895,"lo2":-89.0444,"dy":0.0017,"dx":0.0017,"nx":28,"ny":28,"refTime":"2023-10-01T09:00:00:Z","depth":0,"parameterNumber":3,"parameterNumberName":"V-component_of_WINDS"},"data":[0,0,0,0,0,0,0,0,0,0,0,0,0,0,0,0,0,0,0,0,0,0,0,0,0,0,0,0,0,0,0,0,0,0,0,0,0,0,0,0,0,0,0,0,0,0,0,0,0,0,0,0,0,0,0,0,0,0,0.9529,0.9529,0,0.9462,0.9461,0.946,0.9451,0.9452,0.9453,0.9453,0.9376,0.9374,0.9371,0,0,0,0,0,0,0,0,0,0,0,0,0,0.9645,0.9643,0.9529,0.9529,0.9528,0.9462,0.9461,0.946,0.9451,0.9452,0.9453,0.9454,0.9377,0.9374,0.9371,0,0,0,0,0,0,0,0,0,0,0,0,0,0.9588,0.9642,0.953,0.9516,0.9514,0.9462,0.9461,0.946,0.9451,0.9452,0.9453,0.9454,0.9378,0.9374,0.9371,0.9326,0,0,0.9358,0.9357,0,0,0,0,0,0,0,0,0.9591,0.9583,0.9519,0.9517,0.9514,0.9466,0.9474,0.9415,0.9451,0.9475,0.9453,0.9454,0.9405,0.9399,0.9384,0.9322,0.9319,0.9358,0.9356,0.9354,0.9353,0,0,0,0,0,0,0,0.9595,0.9586,0.9502,0.9518,0.9515,0.9511,0.9504,0.9462,0.9435,0.9473,0.9472,0.9464,0.9404,0.9388,0.9382,0.9318,0.9358,0.9354,0.9352,0.935,0.9216,0.9215,0,0,0,0,0,0,0.9602,0.959,0.9505,0.95,0.9556,0.9508,0.95,0.948,0.9435,0.9429,0.9464,0.9464,0.9394,0.9387,0.9379,0.9323,0.9354,0.935,0.9348,0.9217,0.9216,0.9214,0,0,0,0,0,0,0.9605,0.9595,0.9507,0.9545,0.9533,0.9505,0.9483,0.9479,0.9462,0.9429,0.9423,0.9452,0.9394,0.9385,0.934,0.932,0.9348,0.9345,0.9218,0.9217,0.9215,0.9211,0,0,0,0,0,0,0.9608,0.9596,0.958,0.9545,0.9532,0.9471,0.9482,0.9477,0.9456,0.9456,0.9416,0.9411,0.9394,0.9346,0.9336,0.9315,0.9342,0.922,0.9218,0.9215,0.9212,0.9209,0.9206,0,0,0,0,0,0.9612,0.958,0.9579,0.9569,0.9511,0.947,0.9462,0.9446,0.9455,0.9437,0.9416,0.9412,0.9325,0.9341,0.933,0.9308,0.9221,0.9218,0.9216,0.9214,0.921,0.9206,0,0,0,0,0,0,0.961,0.9575,0.9574,0.9529,0.9503,0.9468,0.9446,0.9442,0.9411,0.9412,0.9392,0.9383,0.9338,0.9319,0.9338,0.9262,0.9273,0.9268,0.9276,0.9272,0.9269,0.9273,0.9338,0,0,0,0,0,0.9605,0.9577,0.9546,0.951,0.9497,0.9474,0.9455,0.9446,0.9417,0.9404,0.938,0.935,0.9315,0.9293,0.926,0.9211,0.9201,0.919,0.9187,0.9185,0.9179,0.9151,0.9146,0.9206,0.9206,0.9206,0,0,0.9593,0.957,0.9553,0.9509,0.9487,0.9456,0.9464,0.9431,0.9407,0.9399,0.9355,0.9336,0.9301,0.9254,0.9231,0.9236,0.9162,0.9181,0.918,0.9176,0.9148,0.9142,0.9137,0.9204,0.9204,0.9204,0,0,0.9555,0.9536,0.9503,0.9482,0.9451,0.9436,0.9428,0.9395,0.9383,0.9339,0.9333,0.9303,0.9245,0.922,0.92,0.9155,0.9149,0.9145,0.9127,0.91,0.9095,0.9091,0.9072,0.9067,0.914,0.914,0.914,0,0.9543,0.9497,0.9486,0.9453,0.9433,0.9428,0.9394,0.9373,0.9331,0.9317,0.9324,0.9251,0.9228,0.9174,0.9164,0.9148,0.9137,0.9147,0.9097,0.9093,0.9088,0.9071,0.9064,0.914,0.914,0.914,0.914,0,0.9483,0.9452,0.9429,0.9392,0.937,0.9336,0.9318,0.9297,0.929,0.9274,0.923,0.9202,0.9162,0.915,0.9141,0.9095,0.9099,0.9102,0.9112,0.9082,0.9065,0.9059,0.9139,0.9139,0.9139,0.9139,0,0,0.9438,0.9398,0.9389,0.9372,0.9338,0.9313,0.9279,0.9243,0.9225,0.9197,0.9166,0.9119,0.9122,0.9099,0.9088,0.9065,0.9029,0.9071,0.9069,0.9062,0.8974,0.897,0.8963,0.9027,0.9026,0.9025,0.8976,0,0.9394,0.9336,0.9325,0.9273,0.9243,0.924,0.921,0.9185,0.917,0.9141,0.9123,0.9089,0.9097,0.9083,0.906,0.9039,0.9011,0.9042,0.8995,0.8994,0.9001,0.8954,0.8949,0.8905,0.897,0.8969,0.8968,0,0.9334,0.9307,0.9253,0.9224,0.9211,0.9185,0.9151,0.9125,0.9096,0.9087,0.9063,0.9056,0.9018,0.9034,0.8981,0.9003,0.8983,0.897,0.8968,0.896,0.8977,0.8942,0.889,0.8882,0.8958,0.8959,0.8959,0,0.9304,0.9254,0.9216,0.9201,0.9167,0.9149,0.9133,0.9106,0.9085,0.9056,0.9042,0.9008,0.8989,0.8962,0.8945,0.8958,0.8893,0.8907,0.8881,0.8882,0.8865,0.8865,0.8806,0.8858,0.8858,0.8858,0.8858,0,0.9254,0.922,0.9202,0.9177,0.9139,0.9128,0.909,0.9074,0.905,0.9021,0.9016,0.8989,0.897,0.8939,0.8926,0.8883,0.8875,0.8864,0.886,0.8863,0.8864,0.8847,0.8849,0.8856,0.8856,0.8857,0.8857,0,0.9211,0.9199,0.9155,0.9128,0.912,0.9093,0.9068,0.9044,0.903,0.8994,0.8984,0.8962,0.8926,0.8908,0.8862,0.8853,0.8804,0.8804,0.8814,0.8812,0.8787,0.8788,0.8712,0.87,0.8762,0.8762,0.8761,0,0.9179,0.9153,0.9124,0.9106,0.909,0.9061,0.9041,0.9029,0.9008,0.8975,0.8953,0.8918,0.8888,0.8831,0.8809,0.8774,0.877,0.8746,0.8765,0.8768,0.8767,0.8767,0.8764,0.8742,0.8741,0.8741,0.874,0,0.9121,0.9117,0.9089,0.906,0.9037,0.9013,0.8988,0.8973,0.8957,0.8934,0.8898,0.8876,0.8831,0.8795,0.8759,0.874,0.8736,0.8736,0.8727,0.8727,0.8734,0.8727,0.8802,0.8736,0.8736,0.8737,0.8737,0.8737,0.9081,0.9058,0.9034,0.9004,0.8985,0.8963,0.8939,0.8924,0.8895,0.8859,0.8854,0.8815,0.8788,0.874,0.8721,0.8689,0.8694,0.8682,0.8679,0.8675,0.8673,0.8742,0.8683,0.8683,0.8683,0.8683,0.8683,0,0.9021,0.9006,0.8979,0.8947,0.8923,0.8926,0.89,0.8878,0.8846,0.8822,0.8794,0.8753,0.8719,0.8696,0.866,0.8639,0.8637,0.863,0.863,0.8625,0.8672,0.8681,0.8633,0.8633,0.8633,0.8633,0.8633,0.8633,0.8986,0.8947,0.894,0.8892,0.8877,0.8841,0.8826,0.8805,0.8786,0.8742,0.8714,0.8701,0.8676,0.864,0.8608,0.8602,0.8587,0.858,0.8574,0.8617,0.8622,0.8627,0.8636,0.8578,0.8578,0.8529,0.8529,0.8528]}]]